Location: Montclair
(37.8322°N, 122.2092°W)
Time: 23:35:37
(UTC+00:00)

Cosmos 1867 - Pass Details

Date: 08 December 2024
Orbit: 773 x 801 km, 65.0° (Epoch: 19 January)

Event Time Altitude Azimuth Distance (km) Brightness Sun altitude
Rises 12:17:15 0° 158° (SSE) 3,266 7.1 -33.8°
Reaches altitude 10° 12:21:01 10° 132° (SE) 2,350 6.6 -33.0°
Maximum altitude 12:23:24 13° 105° (ESE) 2,150 6.6 -32.6°
Drops below altitude 10° 12:25:48 10° 79° (E) 2,364 6.8 -32.1°
Sets 12:29:35 0° 53° (NE) 3,305 7.4 -31.4°
